CFG8PM EDDS-LFMN

Flight info

Callsign CFG8PM
Flight time 1h 5m
Altitude 35000
Route ROTWE5B/25 ROTWE Y126 TUBLO N850 NATOR DCT TRA N850 SOSON DCT ODINA DCT ENOBA Z185 ASBOP/N0399F190 Z185 BORDI
Aircraft A320/M-SDE3FGHIRWY/LB1

Departure

Time 2026-05-05 20:40
Airport Stuttgart Airport (EDDS)

Arrival

Time 2026-05-05 21:46
Airport Nice-Côte d'Azur Airport (LFMN)
Time Latitude Longitude Altitude Speed Heading
2026-05-05 20:13 48.68860 9.19211 1316 ft 0 kts 344°
2026-05-05 20:27 48.68840 9.19220 1315 ft 4 kts 344°
2026-05-05 20:27 48.68815 9.19231 1315 ft 4 kts 344°
2026-05-05 20:27 48.68794 9.19237 1315 ft 4 kts 25°
2026-05-05 20:28 48.68777 9.19211 1316 ft 4 kts 64°
2026-05-05 20:28 48.68768 9.19176 1317 ft 1 kts 74°
2026-05-05 20:28 48.68768 9.19175 1317 ft 1 kts 74°
2026-05-05 20:31 48.68768 9.19177 1317 ft 2 kts 74°
2026-05-05 20:31 48.68781 9.19249 1315 ft 10 kts 74°
2026-05-05 20:31 48.68799 9.19348 1314 ft 10 kts 74°
2026-05-05 20:31 48.68818 9.19445 1312 ft 10 kts 73°
2026-05-05 20:32 48.68836 9.19541 1310 ft 10 kts 74°
2026-05-05 20:32 48.68855 9.19639 1309 ft 10 kts 74°
2026-05-05 20:32 48.68874 9.19740 1307 ft 10 kts 74°
2026-05-05 20:32 48.68886 9.19851 1303 ft 12 kts 109°
2026-05-05 20:33 48.68820 9.19935 1297 ft 14 kts 110°
2026-05-05 20:33 48.68847 9.20075 1294 ft 15 kts 74°
2026-05-05 20:33 48.68876 9.20235 1290 ft 17 kts 75°
2026-05-05 20:33 48.68910 9.20416 1288 ft 8 kts 74°
2026-05-05 20:34 48.68928 9.20506 1283 ft 9 kts 72°
2026-05-05 20:34 48.68948 9.20607 1283 ft 11 kts 75°
2026-05-05 20:34 48.68967 9.20714 1279 ft 11 kts 75°
2026-05-05 20:34 48.68989 9.20834 1275 ft 12 kts 75°
2026-05-05 20:35 48.69019 9.20988 1271 ft 19 kts 74°
2026-05-05 20:35 48.69063 9.21223 1272 ft 27 kts 74°
2026-05-05 20:35 48.69121 9.21531 1265 ft 33 kts 74°
2026-05-05 20:35 48.69189 9.21881 1250 ft 36 kts 74°
2026-05-05 20:36 48.69250 9.22209 1256 ft 26 kts 75°
2026-05-05 20:36 48.69303 9.22484 1236 ft 29 kts 74°
2026-05-05 20:36 48.69361 9.22790 1230 ft 32 kts 74°
2026-05-05 20:36 48.69424 9.23120 1223 ft 34 kts 74°
2026-05-05 20:37 48.69490 9.23472 1216 ft 36 kts 74°
2026-05-05 20:37 48.69560 9.23836 1208 ft 27 kts 74°
2026-05-05 20:37 48.69605 9.24094 1202 ft 17 kts 77°
2026-05-05 20:37 48.69584 9.24237 1196 ft 16 kts 125°
2026-05-05 20:38 48.69544 9.24296 1193 ft 0 kts 161°
2026-05-05 20:38 48.69543 9.24297 1193 ft 2 kts 161°
2026-05-05 20:39 48.69496 9.24320 1190 ft 12 kts 165°
2026-05-05 20:39 48.69399 9.24303 1191 ft 15 kts 219°
2026-05-05 20:39 48.69364 9.24175 1194 ft 12 kts 252°
2026-05-05 20:39 48.69311 9.23893 1199 ft 59 kts 254°
2026-05-05 20:40 48.69136 9.22972 1218 ft 120 kts 253°
2026-05-05 20:40 48.68867 9.21509 1319 ft 158 kts 256°
2026-05-05 20:40 48.68564 9.19909 1788 ft 165 kts 256°
2026-05-05 20:40 48.68252 9.18233 2366 ft 168 kts 257°
2026-05-05 20:41 48.67910 9.16381 2601 ft 197 kts 253°
2026-05-05 20:41 48.67083 9.14590 2820 ft 226 kts 216°
2026-05-05 20:41 48.65622 9.13391 3148 ft 252 kts 208°
2026-05-05 20:41 48.63984 9.12187 3619 ft 268 kts 207°
2026-05-05 20:42 48.62297 9.10970 4517 ft 267 kts 207°
2026-05-05 20:42 48.60629 9.09768 5521 ft 263 kts 207°
2026-05-05 20:42 48.58997 9.08588 6525 ft 257 kts 207°
2026-05-05 20:42 48.57355 9.07392 7104 ft 272 kts 207°
2026-05-05 20:43 48.55589 9.06096 7538 ft 289 kts 208°
2026-05-05 20:43 48.53787 9.04775 8357 ft 292 kts 208°
2026-05-05 20:43 48.52019 9.03484 9708 ft 275 kts 208°
2026-05-05 20:43 48.50288 9.02220 10387 ft 285 kts 208°
2026-05-05 20:44 48.48438 9.00860 10597 ft 307 kts 208°
2026-05-05 20:44 48.46440 8.99392 10749 ft 331 kts 208°
2026-05-05 20:44 48.44303 8.97828 10891 ft 352 kts 208°
2026-05-05 20:44 48.42067 8.96196 11048 ft 370 kts 207°
2026-05-05 20:45 48.37323 8.92738 12104 ft 381 kts 207°
2026-05-05 20:45 48.34920 8.90992 12708 ft 385 kts 207°
2026-05-05 20:45 48.32496 8.89235 13306 ft 389 kts 207°
2026-05-05 20:46 48.30083 8.87485 13864 ft 392 kts 207°
2026-05-05 20:46 48.27587 8.85676 14410 ft 395 kts 207°
2026-05-05 20:46 48.25138 8.83901 14919 ft 398 kts 207°
2026-05-05 20:46 48.22635 8.82090 15416 ft 401 kts 207°
2026-05-05 20:47 48.20113 8.80269 15916 ft 404 kts 207°
2026-05-05 20:47 48.17577 8.78436 16393 ft 407 kts 207°
2026-05-05 20:47 48.15019 8.76591 16845 ft 410 kts 206°
2026-05-05 20:47 48.12447 8.74741 17299 ft 412 kts 206°
2026-05-05 20:48 48.09845 8.72870 17745 ft 415 kts 206°
2026-05-05 20:48 48.07243 8.71001 18202 ft 417 kts 206°
2026-05-05 20:48 48.04623 8.69118 18587 ft 419 kts 206°
2026-05-05 20:48 48.01987 8.67222 18959 ft 421 kts 206°
2026-05-05 20:49 47.99350 8.65329 19328 ft 422 kts 206°
2026-05-05 20:49 47.96694 8.63427 19692 ft 424 kts 206°
2026-05-05 20:49 47.94030 8.61525 20037 ft 425 kts 206°
2026-05-05 20:49 47.91352 8.59613 20375 ft 427 kts 206°
2026-05-05 20:50 47.88668 8.57697 20686 ft 429 kts 206°
2026-05-05 20:50 47.85974 8.55777 20988 ft 431 kts 206°
2026-05-05 20:50 47.83263 8.53850 21308 ft 432 kts 206°
2026-05-05 20:50 47.80549 8.51919 21618 ft 433 kts 206°
2026-05-05 20:51 47.77825 8.49983 21923 ft 435 kts 206°
2026-05-05 20:51 47.75096 8.48046 22219 ft 436 kts 206°
2026-05-05 20:51 47.72322 8.46179 22483 ft 438 kts 201°
2026-05-05 20:51 47.69404 8.44901 22756 ft 440 kts 192°
2026-05-05 20:52 47.66347 8.44341 22993 ft 444 kts 183°
2026-05-05 20:52 47.63253 8.44532 23216 ft 447 kts 175°
2026-05-05 20:52 47.60156 8.45009 23458 ft 448 kts 175°
2026-05-05 20:52 47.57049 8.45470 23656 ft 450 kts 176°
2026-05-05 20:53 47.53932 8.45921 23838 ft 451 kts 176°
2026-05-05 20:53 47.50812 8.46371 24096 ft 450 kts 176°
2026-05-05 20:53 47.47701 8.46823 24357 ft 449 kts 176°
2026-05-05 20:53 47.44594 8.47280 24599 ft 449 kts 176°
2026-05-05 20:54 47.41491 8.47738 24870 ft 448 kts 176°
2026-05-05 20:54 47.38390 8.48193 25165 ft 447 kts 176°
2026-05-05 20:54 47.35299 8.48647 25448 ft 446 kts 176°
2026-05-05 20:54 47.32213 8.49096 25744 ft 445 kts 176°
2026-05-05 20:55 47.29136 8.49544 26052 ft 444 kts 176°
2026-05-05 20:55 47.26062 8.49989 26358 ft 443 kts 177°
2026-05-05 20:55 47.22997 8.50434 26675 ft 442 kts 177°
2026-05-05 20:55 47.19939 8.50881 26999 ft 441 kts 177°
2026-05-05 20:56 47.16894 8.51324 27315 ft 440 kts 177°
2026-05-05 20:56 47.13857 8.51767 27649 ft 438 kts 178°
2026-05-05 20:56 47.10825 8.52208 27985 ft 437 kts 178°
2026-05-05 20:56 47.07797 8.52647 28347 ft 436 kts 178°
2026-05-05 20:57 47.04785 8.53083 28726 ft 433 kts 178°
2026-05-05 20:57 47.01802 8.53513 29085 ft 430 kts 178°
2026-05-05 20:57 46.98832 8.53943 29464 ft 428 kts 179°
2026-05-05 20:57 46.95880 8.54373 29828 ft 426 kts 179°
2026-05-05 20:58 46.92936 8.54800 30107 ft 425 kts 179°
2026-05-05 20:58 46.89998 8.55227 30394 ft 424 kts 179°
2026-05-05 20:58 46.87069 8.55649 30663 ft 422 kts 179°
2026-05-05 20:58 46.84151 8.56070 30965 ft 421 kts 179°
2026-05-05 20:59 46.81246 8.56489 31325 ft 419 kts 179°
2026-05-05 20:59 46.78347 8.56905 31577 ft 418 kts 179°
2026-05-05 20:59 46.75460 8.57314 31852 ft 418 kts 180°
2026-05-05 20:59 46.72568 8.57721 32153 ft 417 kts 180°
2026-05-05 21:00 46.69680 8.58133 32443 ft 416 kts 180°
2026-05-05 21:00 46.66799 8.58550 32669 ft 416 kts 180°
2026-05-05 21:00 46.63919 8.58960 32943 ft 415 kts 181°
2026-05-05 21:00 46.61091 8.59359 33279 ft 413 kts 181°
2026-05-05 21:01 46.58202 8.59766 33616 ft 411 kts 181°
2026-05-05 21:01 46.55352 8.60168 33919 ft 411 kts 181°
2026-05-05 21:01 46.52513 8.60572 34172 ft 410 kts 181°
2026-05-05 21:01 46.49711 8.60970 34323 ft 410 kts 181°
2026-05-05 21:02 46.46870 8.61373 34474 ft 410 kts 181°
2026-05-05 21:02 46.44028 8.61778 34596 ft 411 kts 181°
2026-05-05 21:02 46.41177 8.62182 34770 ft 412 kts 181°
2026-05-05 21:02 46.38332 8.62583 34941 ft 411 kts 180°
2026-05-05 21:03 46.32577 8.63379 34994 ft 419 kts 180°
2026-05-05 21:03 46.26741 8.64185 34998 ft 424 kts 180°
2026-05-05 21:04 46.20832 8.65021 35000 ft 426 kts 180°
2026-05-05 21:04 46.14937 8.65866 35004 ft 426 kts 180°
2026-05-05 21:05 46.09066 8.66201 35003 ft 417 kts 191°
2026-05-05 21:05 46.03332 8.65037 34996 ft 415 kts 193°
2026-05-05 21:06 45.97631 8.63864 35004 ft 415 kts 193°
2026-05-05 21:06 45.91908 8.62701 35015 ft 414 kts 193°
2026-05-05 21:07 45.86195 8.61539 35017 ft 414 kts 193°
2026-05-05 21:07 45.80499 8.60385 35015 ft 413 kts 193°
2026-05-05 21:08 45.74807 8.59235 35019 ft 412 kts 193°
2026-05-05 21:08 45.69133 8.58084 35018 ft 412 kts 193°
2026-05-05 21:09 45.63460 8.56931 35000 ft 411 kts 193°
2026-05-05 21:09 45.57856 8.55502 35015 ft 404 kts 203°
2026-05-05 21:10 45.52610 8.52759 35029 ft 400 kts 204°
2026-05-05 21:10 45.47400 8.49986 35028 ft 399 kts 204°
2026-05-05 21:11 45.44801 8.48602 34837 ft 402 kts 204°
2026-05-05 21:11 45.42199 8.47220 34472 ft 393 kts 204°
2026-05-05 21:11 45.39670 8.45888 34172 ft 384 kts 205°
2026-05-05 21:11 45.37177 8.44574 33872 ft 379 kts 205°
2026-05-05 21:12 45.34715 8.43280 33534 ft 375 kts 205°
2026-05-05 21:12 45.32276 8.41995 33146 ft 373 kts 205°
2026-05-05 21:12 45.29854 8.40720 32757 ft 370 kts 205°
2026-05-05 21:12 45.27445 8.39456 32335 ft 368 kts 205°
2026-05-05 21:13 45.25058 8.38205 31871 ft 364 kts 205°
2026-05-05 21:13 45.22688 8.36960 31407 ft 361 kts 205°
2026-05-05 21:13 45.20343 8.35725 30957 ft 358 kts 205°
2026-05-05 21:13 45.18013 8.34501 30519 ft 356 kts 205°
2026-05-05 21:14 45.16469 8.33693 30223 ft 355 kts 204°
2026-05-05 21:14 45.14170 8.32494 29739 ft 352 kts 204°
2026-05-05 21:14 45.11851 8.31281 29221 ft 360 kts 204°
2026-05-05 21:14 45.09472 8.30032 28664 ft 366 kts 204°
2026-05-05 21:15 45.07082 8.28779 28097 ft 367 kts 204°
2026-05-05 21:15 45.04685 8.27528 27561 ft 366 kts 204°
2026-05-05 21:15 45.02300 8.26289 27037 ft 365 kts 203°
2026-05-05 21:15 44.99924 8.25060 26519 ft 363 kts 203°
2026-05-05 21:16 44.97528 8.23817 26011 ft 362 kts 203°
2026-05-05 21:16 44.95168 8.22589 25512 ft 360 kts 203°
2026-05-05 21:16 44.92823 8.21369 25026 ft 359 kts 202°
2026-05-05 21:16 44.90482 8.20158 24541 ft 358 kts 202°
2026-05-05 21:17 44.88144 8.18953 24055 ft 356 kts 202°
2026-05-05 21:17 44.85824 8.17756 23711 ft 355 kts 202°
2026-05-05 21:17 44.83532 8.16570 23414 ft 355 kts 202°
2026-05-05 21:17 44.81218 8.15373 23080 ft 354 kts 202°
2026-05-05 21:18 44.78907 8.14180 22755 ft 353 kts 202°
2026-05-05 21:18 44.76612 8.12995 22430 ft 351 kts 202°
2026-05-05 21:18 44.74293 8.11798 22108 ft 361 kts 202°
2026-05-05 21:18 44.71870 8.10549 21789 ft 376 kts 202°
2026-05-05 21:19 44.69411 8.09282 21461 ft 378 kts 201°
2026-05-05 21:19 44.66942 8.08014 21150 ft 377 kts 201°
2026-05-05 21:19 44.64485 8.06756 20841 ft 376 kts 201°
2026-05-05 21:19 44.62035 8.05496 20578 ft 375 kts 202°
2026-05-05 21:20 44.59585 8.04234 20405 ft 374 kts 202°
2026-05-05 21:20 44.57148 8.02984 20229 ft 373 kts 201°
2026-05-05 21:20 44.54709 8.01739 20056 ft 372 kts 201°
2026-05-05 21:20 44.52281 8.00501 19863 ft 372 kts 201°
2026-05-05 21:21 44.49850 7.99259 19673 ft 371 kts 201°
2026-05-05 21:21 44.47426 7.98024 19479 ft 371 kts 201°
2026-05-05 21:21 44.45009 7.96793 19302 ft 370 kts 201°
2026-05-05 21:21 44.42592 7.95563 19107 ft 369 kts 201°
2026-05-05 21:22 44.40188 7.94337 18916 ft 368 kts 201°
2026-05-05 21:22 44.37781 7.93115 18716 ft 367 kts 201°
2026-05-05 21:22 44.35379 7.91899 18550 ft 367 kts 201°
2026-05-05 21:22 44.32977 7.90681 18423 ft 368 kts 201°
2026-05-05 21:23 44.30572 7.89462 18325 ft 367 kts 201°
2026-05-05 21:23 44.28172 7.88243 18216 ft 367 kts 201°
2026-05-05 21:23 44.25802 7.87040 18110 ft 367 kts 201°
2026-05-05 21:23 44.23373 7.85811 17960 ft 367 kts 201°
2026-05-05 21:24 44.21003 7.84616 17794 ft 366 kts 201°
2026-05-05 21:24 44.18615 7.83410 17629 ft 365 kts 201°
2026-05-05 21:24 44.16231 7.82206 17463 ft 364 kts 201°
2026-05-05 21:24 44.13854 7.81006 17307 ft 362 kts 201°
2026-05-05 21:25 44.11493 7.79814 17138 ft 361 kts 201°
2026-05-05 21:25 44.09156 7.78634 16977 ft 360 kts 201°
2026-05-05 21:25 44.06811 7.77452 16817 ft 357 kts 201°
2026-05-05 21:25 44.04548 7.76032 16669 ft 357 kts 210°
2026-05-05 21:26 44.02490 7.74117 16490 ft 356 kts 219°
2026-05-05 21:26 44.00692 7.71752 16281 ft 357 kts 227°
2026-05-05 21:26 43.99194 7.69015 16106 ft 358 kts 233°
2026-05-05 21:26 43.97778 7.66178 15951 ft 357 kts 233°
2026-05-05 21:27 43.96359 7.63361 15754 ft 355 kts 233°
2026-05-05 21:27 43.94941 7.60557 15578 ft 355 kts 233°
2026-05-05 21:27 43.93520 7.57757 15457 ft 355 kts 233°
2026-05-05 21:27 43.92100 7.54965 15298 ft 355 kts 233°
2026-05-05 21:28 43.90678 7.52169 15130 ft 354 kts 233°
2026-05-05 21:28 43.89260 7.49377 14955 ft 354 kts 233°
2026-05-05 21:28 43.87806 7.46637 14781 ft 351 kts 227°
2026-05-05 21:28 43.85965 7.44449 14606 ft 350 kts 212°
2026-05-05 21:29 43.83740 7.43080 14441 ft 351 kts 197°
2026-05-05 21:29 43.81312 7.42666 14269 ft 355 kts 181°
2026-05-05 21:29 43.78870 7.43257 14105 ft 361 kts 165°
2026-05-05 21:29 43.76621 7.44847 13928 ft 368 kts 148°
2026-05-05 21:30 43.74609 7.47062 13761 ft 369 kts 145°
2026-05-05 21:30 43.72616 7.49295 13574 ft 368 kts 145°
2026-05-05 21:30 43.70612 7.51514 13354 ft 377 kts 146°
2026-05-05 21:30 43.68484 7.53806 13082 ft 395 kts 146°
2026-05-05 21:31 43.66298 7.56132 12816 ft 398 kts 146°
2026-05-05 21:31 43.64103 7.58465 12553 ft 398 kts 146°
2026-05-05 21:31 43.61917 7.60792 12279 ft 397 kts 146°
2026-05-05 21:31 43.59726 7.63121 12017 ft 396 kts 146°
2026-05-05 21:32 43.57465 7.65260 11755 ft 391 kts 155°
2026-05-05 21:32 43.54945 7.66540 11503 ft 384 kts 170°
2026-05-05 21:32 43.52310 7.66842 11258 ft 379 kts 185°
2026-05-05 21:32 43.49733 7.66175 11009 ft 377 kts 199°
2026-05-05 21:33 43.47385 7.64612 10759 ft 376 kts 213°
2026-05-05 21:33 43.45438 7.62302 10518 ft 376 kts 227°
2026-05-05 21:33 43.43966 7.59332 10281 ft 378 kts 242°
2026-05-05 21:33 43.43101 7.55912 10047 ft 381 kts 257°
2026-05-05 21:34 43.42917 7.52309 9839 ft 373 kts 271°
2026-05-05 21:34 43.42977 7.51065 9794 ft 366 kts 272°
2026-05-05 21:34 43.43136 7.47661 9657 ft 348 kts 271°
2026-05-05 21:34 43.43275 7.44420 9526 ft 332 kts 271°
2026-05-05 21:35 43.43401 7.41314 9396 ft 317 kts 271°
2026-05-05 21:35 43.43520 7.38392 9258 ft 294 kts 271°
2026-05-05 21:35 43.43632 7.35633 9130 ft 285 kts 270°
2026-05-05 21:35 43.43738 7.32930 8997 ft 279 kts 270°
2026-05-05 21:36 43.43843 7.30362 8855 ft 259 kts 270°
2026-05-05 21:36 43.43943 7.27946 8741 ft 251 kts 270°
2026-05-05 21:36 43.44039 7.25562 8610 ft 249 kts 270°
2026-05-05 21:36 43.44135 7.23177 8486 ft 254 kts 270°
2026-05-05 21:37 43.44233 7.20726 8359 ft 258 kts 270°
2026-05-05 21:37 43.44332 7.18256 8226 ft 259 kts 270°
2026-05-05 21:37 43.44429 7.15789 8107 ft 258 kts 270°
2026-05-05 21:37 43.44525 7.13358 7875 ft 252 kts 270°
2026-05-05 21:38 43.44620 7.10966 7324 ft 251 kts 270°
2026-05-05 21:38 43.44714 7.08564 6757 ft 251 kts 270°
2026-05-05 21:38 43.44809 7.06162 6159 ft 252 kts 271°
2026-05-05 21:38 43.44903 7.03774 5815 ft 245 kts 271°
2026-05-05 21:39 43.44997 7.01513 5650 ft 228 kts 273°
2026-05-05 21:39 43.45468 6.99546 5555 ft 210 kts 303°
2026-05-05 21:39 43.46510 6.98277 5341 ft 196 kts 333°
2026-05-05 21:39 43.47835 6.97889 4831 ft 197 kts
2026-05-05 21:40 43.49093 6.98482 4469 ft 187 kts 36°
2026-05-05 21:40 43.50017 6.99651 4206 ft 175 kts 46°
2026-05-05 21:40 43.50862 7.00800 3971 ft 168 kts 47°
2026-05-05 21:40 43.51686 7.01921 3756 ft 164 kts 47°
2026-05-05 21:41 43.52486 7.03013 3534 ft 160 kts 46°
2026-05-05 21:41 43.53265 7.04077 3326 ft 155 kts 46°
2026-05-05 21:41 43.54012 7.05097 3144 ft 149 kts 46°
2026-05-05 21:41 43.54739 7.06091 2931 ft 146 kts 45°
2026-05-05 21:42 43.55454 7.07069 2733 ft 144 kts 45°
2026-05-05 21:42 43.56167 7.08044 2537 ft 143 kts 46°
2026-05-05 21:42 43.56860 7.08993 2350 ft 142 kts 46°
2026-05-05 21:42 43.57562 7.09953 2156 ft 140 kts 46°
2026-05-05 21:43 43.58255 7.10902 1981 ft 140 kts 46°
2026-05-05 21:43 43.58947 7.11849 1793 ft 139 kts 46°
2026-05-05 21:43 43.59634 7.12790 1606 ft 138 kts 46°
2026-05-05 21:43 43.60315 7.13724 1425 ft 137 kts 46°
2026-05-05 21:44 43.60992 7.14650 1182 ft 137 kts 47°
2026-05-05 21:44 43.61668 7.15569 981 ft 136 kts 46°
2026-05-05 21:44 43.62343 7.16475 791 ft 137 kts 46°
2026-05-05 21:44 43.63027 7.17410 611 ft 136 kts 47°
2026-05-05 21:45 43.63687 7.18337 451 ft 136 kts 46°
2026-05-05 21:45 43.64339 7.19244 312 ft 134 kts 46°
2026-05-05 21:45 43.65005 7.20153 113 ft 132 kts 46°
2026-05-05 21:45 43.65622 7.21018 24 ft 114 kts 46°
2026-05-05 21:46 43.66040 7.21592 20 ft 63 kts 43°
2026-05-05 21:46 43.66293 7.21926 22 ft 43 kts 38°
2026-05-05 21:46 43.66507 7.22049 21 ft 13 kts 360°
2026-05-05 21:46 43.66583 7.21985 21 ft 13 kts 315°
2026-05-05 21:47 43.66640 7.21902 21 ft 11 kts 303°
2026-05-05 21:47 43.66622 7.21821 22 ft 9 kts 226°
2026-05-05 21:47 43.66581 7.21765 21 ft 8 kts 225°
2026-05-05 21:47 43.66546 7.21716 21 ft 7 kts 226°
2026-05-05 21:48 43.66516 7.21674 21 ft 7 kts 226°
2026-05-05 21:48 43.66487 7.21633 21 ft 0 kts 224°
2026-05-05 21:50 43.66486 7.21632 21 ft 2 kts 223°
2026-05-05 21:50 43.66480 7.21570 23 ft 8 kts 313°
2026-05-05 21:50 43.66503 7.21537 21 ft 1 kts 313°
2026-05-05 21:50 43.66505 7.21533 21 ft 0 kts 313°